Theta_e
313 313 313 313 313 312 312 312 313 313 313 313 313 313 313 313 313 313 312 312 313 313 312 313 313 313 313 306 304 313 322 315 314 310 306 305 303 302 298 298 300 298 299 301 303 304 305
313 313 313 313 312 312 312 312 312 313 313 312 312 312 313 312 312 312 312 313 313 313 313 313 314 313 309 300 311 312 312 311 311 309 307 306 304 306 302 300 298 300 299 300 302 301 303
313 312 312 312 312 312 312 312 312 312 313 313 313 312 311 311 312 313 313 313 312 313 313 314 314 313 307 304 313 313 312 312 312 310 306 308 308 304 303 299 303 301 297 299 300 301 301
312 312 312 312 312 311 311 312 312 312 313 313 312 312 311 312 313 313 314 313 314 315 314 315 315 312 305 313 316 313 315 313 314 313 310 311 310 305 303 304 300 297 297 292 299 300 301
312 312 312 312 311 311 311 311 312 312 312 312 313 312 311 312 313 313 313 313 316 316 316 315 313 309 303 312 309 312 314 309 311 311 311 310 308 303 303 297 294 296 290 292 294 300 300
312 312 312 311 311 311 311 311 311 311 312 312 312 312 312 312 312 313 312 312 317 316 315 314 312 305 308 304 309 310 312 312 308 308 306 305 303 299 299 296 288 290 291 292 292 296 298
312 312 311 311 310 310 310 310 311 311 311 311 311 312 311 311 312 312 312 314 309 308 309 304 305 304 305 309 311 308 310 309 308 305 299 302 297 293 296 298 297 295 293 292 296 299 296
312 311 311 310 310 310 311 311 311 311 311 311 311 311 311 311 312 311 313 308 307 308 300 307 306 306 308 308 302 305 309 303 302 298 300 298 294 299 300 299 297 296 293 293 297 299 297
312 311 311 310 310 311 311 311 311 311 311 311 311 311 310 311 311 311 310 308 313 312 302 302 305 304 304 306 302 302 306 304 300 298 298 293 297 300 298 296 294 295 293 293 293 297 299
313 311 311 311 310 310 310 310 310 311 311 310 310 310 311 310 308 313 310 312 314 313 298 295 298 303 304 306 300 307 307 303 300 296 297 295 300 297 297 295 296 291 297 296 292 289 288
313 312 312 311 310 310 310 310 310 310 310 310 309 310 310 308 314 309 310 315 314 310 285 296 298 308 306 301 301 302 309 304 297 297 296 294 296 295 295 296 297 293 297 295 294 291 289
314 313 312 311 311 310 309 309 309 309 309 309 309 310 310 311 315 312 313 314 312 295 284 293 299 299 299 301 300 302 302 305 303 298 299 297 301 298 298 300 298 298 295 294 294 291 284
314 313 312 311 310 310 309 309 309 309 309 309 309 308 310 313 307 313 314 309 295 286 296 292 294 298 297 296 297 298 297 296 291 287 291 295 297 300 300 296 299 294 290 284 282 282 283
315 313 312 311 310 310 309 308 308 308 308 308 307 306 308 310 313 314 311 300 286 290 292 298 297 297 293 296 296 296 295 293 297 295 291 288 287 295 300 297 292 292 292 286 279 281 285
315 314 313 311 310 309 309 308 308 307 307 306 305 317 314 310 313 313 304 292 290 293 295 294 296 292 293 295 294 293 294 294 296 296 289 288 288 297 297 298 295 290 286 293 285 287 284
315 315 314 312 310 309 309 308 308 308 307 306 308 312 308 312 315 311 299 290 294 297 298 297 290 293 288 291 291 292 292 297 295 298 298 290 284 294 296 297 296 293 295 287 288 279 279
314 314 314 312 310 309 309 309 308 307 306 305 308 304 308 312 313 304 294 293 295 299 299 295 294 291 292 290 291 289 290 296 298 297 296 291 284 289 294 292 291 289 287 291 291 287 282
313 314 314 313 311 309 308 308 307 307 305 306 305 298 308 312 299 301 294 294 295 297 299 298 298 296 292 292 289 288 289 292 299 296 288 292 287 285 290 296 299 295 292 291 285 285 288
313 314 314 313 311 309 308 308 307 306 305 305 300 301 308 308 292 294 297 295 295 296 296 296 295 296 297 290 286 291 293 298 298 294 287 290 287 283 287 292 295 292 294 294 294 293 286
313 313 313 314 312 310 308 307 307 306 305 305 300 296 302 303 301 295 294 294 293 298 296 298 297 298 294 292 293 289 291 295 297 296 299 296 288 286 284 289 290 289 291 293 291 286 287
314 313 313 313 313 310 308 307 307 306 305 306 301 297 297 293 296 295 296 294 292 292 296 298 296 296 294 287 289 290 294 294 295 297 295 291 287 289 291 293 294 291 292 291 290 291 285
314 314 313 313 313 311 307 306 307 306 304 307 298 296 300 296 297 295 292 294 292 293 294 295 295 297 296 291 292 289 292 292 289 293 291 293 287 291 289 295 294 291 292 292 292 292 292
313 313 313 313 313 312 307 305 306 306 305 302 305 304 299 296 295 293 293 293 292 295 297 299 298 295 293 298 298 300 301 299 294 290 289 288 289 289 288 294 293 288 289 290 291 293 287
313 313 313 313 313 312 307 304 305 305 304 303 304 302 296 292 294 293 293 294 294 295 294 298 300 297 301 305 304 304 302 300 296 293 293 288 289 292 290 293 283 290 293 291 287 292 291
313 313 313 313 312 312 308 305 305 305 304 304 307 302 298 292 294 294 293 293 296 299 299 299 301 304 306 300 296 294 293 293 292 296 293 292 289 290 289 290 290 291 289 286 284 286 293
312 312 312 312 312 313 309 306 305 305 304 302 302 307 301 293 296 295 293 295 294 295 298 300 305 307 305 297 294 285 284 286 286 289 295 295 296 290 289 285 282 287 287 290 288 289 291
311 311 312 312 312 313 311 308 305 304 304 303 304 307 300 293 297 297 294 294 296 297 296 300 301 301 300 294 289 286 286 290 284 284 283 287 288 287 288 286 288 287 287 294 286 284 292
310 310 311 311 312 312 313 309 305 305 305 302 299 305 300 296 297 298 299 296 297 298 294 301 299 300 294 290 290 289 288 290 287 286 283 282 281 283 285 285 283 290 288 284 289 292 295
309 309 310 310 310 311 312 310 306 305 305 304 296 304 305 297 296 302 302 303 302 301 299 298 297 298 296 291 292 291 287 289 288 283 290 285 285 282 284 285 289 289 287 290 297 292 295
Wind_Speed
17 17 17 17 17 18 18 19 19 19 19 19 20 20 19 19 18 16 15 14 14 14 12 11 11 10 9 6 4 8 8 5 9 6 7 6 8 8 11 5 8 16 19 21 16 21 18
17 17 17 18 18 18 19 19 20 19 19 20 21 20 19 19 17 16 15 15 14 13 11 9 10 6 6 2 3 4 6 7 9 8 3 3 3 4 9 10 11 10 9 13 16 19 24
17 17 17 18 18 19 19 20 21 21 20 20 19 19 20 19 17 16 15 15 14 11 8 8 8 7 6 7 1 4 6 7 4 8 8 6 5 9 2 10 8 12 16 16 18 20 22
17 17 18 18 18 19 20 20 21 21 20 20 21 19 20 19 18 16 17 16 11 3 4 7 8 5 4 3 3 7 7 10 9 8 9 6 8 12 11 10 13 17 16 16 13 7 19
17 17 18 18 19 19 20 20 21 22 22 21 20 19 20 19 18 17 16 12 1 6 8 9 7 5 3 5 5 7 5 8 4 7 7 5 10 14 12 13 15 14 15 14 14 9 11
17 18 18 19 19 18 20 21 21 22 23 22 20 19 18 18 17 16 14 7 9 10 7 4 3 7 5 5 7 10 0 8 7 7 10 12 10 13 14 14 15 15 12 13 13 13 14
17 18 18 19 20 20 21 22 22 22 23 24 23 20 20 18 17 14 10 7 5 7 7 10 13 10 8 7 10 14 7 6 7 9 15 15 14 17 19 19 19 20 21 21 18 11 13
17 18 19 20 21 21 21 22 23 24 24 25 25 24 22 18 16 11 7 6 6 8 10 7 6 9 9 6 19 13 4 8 7 14 13 11 19 21 20 21 21 22 23 24 20 17 15
17 18 19 21 21 20 22 22 24 24 24 24 24 24 23 18 15 5 5 5 6 5 7 2 5 8 4 12 21 11 5 9 15 17 16 19 20 18 15 16 19 22 23 23 22 18 18
17 18 20 20 20 21 23 24 24 25 26 26 25 24 21 17 6 4 1 1 6 5 6 6 1 1 6 17 7 5 12 9 13 15 15 16 17 15 20 23 21 21 18 19 18 13 18
18 18 19 19 21 22 23 25 26 26 27 28 27 24 18 7 5 5 7 9 3 6 4 12 2 6 14 10 13 5 1 9 17 18 12 16 16 16 17 16 13 17 16 18 16 17 18
18 19 19 19 21 22 23 25 26 27 28 29 28 23 12 4 3 6 7 3 6 8 5 9 5 16 20 16 9 10 16 10 13 17 19 26 21 18 22 15 15 13 12 10 13 11 16
17 18 18 19 21 22 24 25 27 28 29 30 28 22 7 4 8 10 5 5 6 6 12 8 17 21 20 15 17 13 18 14 7 5 11 15 20 22 18 18 14 7 6 6 9 10 20
15 16 17 19 21 22 24 25 27 29 29 31 28 14 3 3 7 6 6 6 4 7 9 14 16 19 10 16 15 17 17 15 11 8 10 8 6 7 13 19 10 18 18 11 8 15 16
18 15 17 19 20 22 24 26 27 29 31 31 26 2 2 10 7 5 8 4 6 10 12 13 18 11 17 22 17 13 16 15 4 4 5 6 8 4 9 15 9 3 12 14 4 11 10
17 16 16 16 18 20 23 25 27 30 32 29 6 3 5 14 7 7 4 2 4 4 11 10 9 8 21 24 15 18 12 8 6 7 4 2 11 14 13 5 7 10 6 5 7 8 15
16 18 15 15 16 18 21 24 27 29 32 28 5 5 7 13 6 3 4 5 6 6 9 6 12 16 17 18 15 8 8 14 10 9 9 3 7 7 5 10 12 6 4 9 10 11 7
16 17 16 14 15 16 18 21 23 26 32 9 6 4 9 10 2 2 5 7 5 8 5 9 9 11 11 16 7 8 10 8 13 10 7 7 4 7 18 12 16 12 13 16 8 13 12
14 15 15 14 14 15 17 18 21 22 21 9 8 4 5 10 6 7 7 5 4 10 9 5 7 7 17 8 9 9 16 10 12 10 4 2 5 6 6 8 9 7 12 15 17 11 13
13 13 14 15 13 12 15 17 19 22 21 7 6 6 2 3 2 7 9 5 9 8 12 8 14 14 13 20 13 11 21 9 21 19 18 7 5 8 11 19 3 6 7 14 14 10 10
13 11 12 14 13 12 13 16 18 21 22 5 5 5 4 7 3 10 8 5 13 11 5 9 8 14 21 9 21 9 25 24 11 4 5 3 6 8 16 21 11 10 11 7 16 16 8
14 12 12 13 13 9 9 13 15 18 24 2 8 6 2 10 8 12 3 8 11 13 7 10 12 23 21 18 14 26 25 18 4 6 5 3 5 12 15 8 3 5 6 7 11 13 13
15 13 12 14 13 8 5 9 12 13 14 2 2 1 5 5 7 8 7 10 12 15 11 14 18 21 21 22 27 27 18 10 6 5 6 4 5 6 6 8 2 6 7 10 6 7 5
16 15 14 13 11 9 6 4 7 7 7 3 3 4 5 8 9 9 13 16 18 16 17 21 19 16 19 27 27 12 6 5 6 6 3 8 9 6 7 9 2 4 9 7 8 6 10
17 16 16 15 11 10 8 6 4 5 3 4 2 2 3 7 10 11 10 14 15 15 13 15 14 17 18 20 11 8 2 3 1 5 7 9 5 7 6 9 2 2 9 8 7 3 14
16 17 16 15 13 11 11 9 7 6 4 6 2 2 3 6 2 8 10 12 11 12 12 11 15 12 13 9 9 7 5 7 5 16 7 10 7 5 7 6 6 6 20 20 4 3 18
17 17 17 16 14 13 13 12 10 8 5 4 2 5 3 6 5 5 7 9 7 7 8 13 16 6 8 9 8 6 5 7 6 10 11 10 8 8 9 4 3 11 25 19 3 6 21
17 17 17 16 15 13 14 14 11 9 6 5 2 5 5 6 12 11 8 12 10 9 7 12 10 5 3 7 5 6 5 6 5 3 7 5 7 5 6 5 4 23 15 8 9 11 10
17 18 18 17 15 14 14 15 13 10 9 6 3 5 5 5 9 16 20 21 20 18 11 5 5 7 2 3 4 4 4 4 7 5 2 2 5 6 5 5 9 13 12 16 8 3 5
Wind_Direction
21 17 13 9 5 1 356 350 347 346 343 341 339 338 335 331 330 327 325 321 314 306 299 295 290 295 276 221 61 128 201 218 265 252 258 271 267 267 259 281 283 251 256 265 243 259 261
19 15 11 7 3 360 355 350 346 344 340 339 340 339 334 332 333 329 324 318 309 301 290 273 265 262 265 140 71 182 234 255 253 231 208 232 294 316 285 267 261 298 284 281 272 261 255
17 13 9 5 2 359 355 351 347 344 341 339 339 339 339 337 333 329 323 319 309 298 279 240 229 232 258 52 188 202 227 251 244 244 244 228 261 251 317 259 268 274 270 263 248 244 247
15 11 7 4 1 359 354 350 346 343 342 340 343 341 339 334 330 329 327 324 308 271 182 187 194 227 281 125 278 248 242 248 230 239 255 286 259 260 267 277 264 255 257 267 256 261 238
12 8 6 3 360 356 351 347 344 342 342 341 339 340 337 334 329 330 331 326 4 121 133 152 200 256 214 134 250 356 265 287 215 217 220 240 244 244 241 251 260 231 260 250 252 215 250
9 6 4 1 357 354 349 347 344 343 341 340 338 336 332 330 326 326 323 278 125 155 184 217 258 238 220 329 328 316 124 268 268 234 219 223 227 237 231 245 252 268 235 240 252 263 222
7 4 2 359 356 353 348 345 343 342 340 339 338 336 333 327 321 321 294 215 258 189 242 291 311 288 301 324 287 295 314 217 236 237 253 226 238 239 250 255 254 273 276 269 269 267 264
4 2 359 357 355 351 347 344 342 341 339 337 336 335 332 324 318 309 265 346 22 331 303 317 271 269 267 290 307 337 176 228 233 276 283 248 242 250 262 267 264 262 261 262 264 259 260
1 359 357 354 351 349 348 345 342 340 339 336 336 333 333 324 318 253 325 19 324 308 274 312 281 281 297 298 314 288 287 276 281 272 267 262 269 291 260 254 254 250 252 263 271 274 254
359 358 355 351 349 348 347 346 343 340 338 336 338 335 332 321 270 350 60 358 306 297 269 34 190 135 273 330 290 220 306 296 281 271 294 283 279 275 272 253 252 255 258 266 270 263 256
357 356 353 350 348 347 345 344 341 341 337 336 337 336 333 312 332 329 349 320 323 210 288 348 359 356 319 311 319 41 66 292 282 291 283 249 270 278 267 257 269 271 292 277 264 247 262
354 353 352 349 347 346 344 343 341 341 338 336 336 336 332 218 228 4 319 292 230 231 20 343 310 327 323 330 321 274 286 285 274 288 268 266 275 267 256 269 265 270 291 257 224 238 241
349 349 349 349 346 345 344 343 342 341 340 336 336 333 309 303 342 328 315 234 262 15 348 345 326 328 321 333 322 326 317 306 264 267 279 308 263 223 239 249 251 191 188 209 196 202 238
345 344 346 350 345 345 343 343 342 340 341 338 331 318 134 360 331 306 265 273 329 8 345 327 327 312 326 337 338 316 313 311 314 258 282 286 305 192 207 229 227 213 212 230 227 216 244
345 339 344 351 345 344 343 342 343 341 341 340 314 216 278 351 329 284 282 24 353 347 337 322 317 329 339 333 331 336 305 302 279 252 239 299 252 7 280 245 262 145 215 244 293 283 290
338 334 340 348 343 344 343 342 343 343 341 340 323 284 36 341 325 272 344 284 308 314 317 311 315 329 329 333 328 332 308 302 289 322 348 275 280 265 275 282 230 217 350 192 200 247 243
336 335 336 344 338 343 342 343 343 344 341 326 286 274 31 343 273 280 30 349 314 334 331 306 303 305 324 331 318 301 267 295 315 315 307 251 222 274 260 211 215 173 212 230 271 250 261
335 336 334 336 332 339 341 343 344 347 342 330 312 302 13 332 312 3 359 334 341 298 303 287 285 292 318 324 279 279 255 283 313 327 277 260 277 259 263 254 258 232 221 227 235 226 239
321 329 332 323 329 336 338 340 343 347 1 317 331 306 45 314 15 348 342 295 257 307 326 299 287 296 311 303 298 251 292 280 323 315 262 179 229 279 247 211 224 239 225 231 236 259 267
318 322 324 321 320 330 334 339 343 342 352 304 311 323 53 68 71 336 340 312 323 320 300 271 285 298 289 311 300 283 288 300 319 304 290 207 246 243 274 305 349 245 225 220 230 252 263
301 306 310 315 311 323 334 339 344 342 339 297 5 44 14 317 340 332 304 288 320 339 277 299 284 308 334 304 301 275 314 314 315 321 305 234 263 243 251 272 265 242 263 191 240 242 251
298 297 300 303 309 306 327 336 342 345 327 353 332 339 282 287 294 305 93 322 312 329 306 298 302 322 320 303 304 316 313 312 291 314 301 271 276 302 289 283 207 224 198 208 236 262 262
292 289 290 295 305 288 300 331 340 353 331 351 44 190 290 301 314 300 357 323 307 314 293 276 298 316 310 312 320 302 290 285 241 281 317 287 304 301 295 330 302 121 11 308 327 299 282
291 289 288 291 300 281 250 299 325 354 359 310 40 286 283 297 308 320 310 309 305 309 288 294 304 315 317 322 301 271 224 208 205 192 349 307 310 278 285 303 310 102 44 344 315 287 305
298 295 291 291 290 290 224 239 273 312 302 290 136 234 293 285 303 288 318 309 307 306 294 299 315 326 324 309 322 329 300 60 337 316 332 316 292 298 317 331 344 38 23 341 329 294 350
295 296 291 288 280 281 220 217 216 246 242 280 238 245 274 308 324 329 308 299 301 315 308 326 332 338 331 309 360 336 347 336 336 326 355 318 266 246 329 320 354 17 328 327 186 354 347
300 300 297 291 281 280 223 218 209 236 225 247 300 227 265 267 280 291 282 320 295 294 289 296 346 331 359 325 346 349 323 2 345 326 340 338 355 350 340 332 98 4 328 313 337 334 315
298 296 296 291 282 275 238 215 204 225 214 212 297 203 245 266 288 264 249 269 275 256 281 330 318 35 308 342 347 355 308 359 299 279 335 323 328 1 325 332 353 359 344 3 310 294 313
300 294 293 291 284 274 248 211 200 204 218 195 254 182 227 246 276 307 278 269 260 264 294 304 289 322 327 312 360 304 306 311 317 322 344 340 8 316 332 341 340 322 305 299 335 98 38